Location: Caracas
(10.5033°N, 66.8422°W)
Time: 03:12:42
(UTC-04:00)

Vanguard 2 - All Passes

Search period start: 22 November 2017 00:00
Search period end: 02 December 2017 00:00
Orbit: 553 x 2940 km, 32.9° (Epoch: 21 November)

Date Brightness Start Highest point End Pass type
(mag) Time Alt. Az. Time Alt. Az. Time Alt. Az.
22 Nov - 01:31:42 10° NNW 01:39:31 24° NNE 01:50:19 10° ENE visible
22 Nov - 03:40:17 10° NW 03:52:54 50° NNE 04:09:50 10° E visible
22 Nov - 05:50:10 10° WNW 06:06:11 80° SW 06:23:56 10° SE visible
22 Nov - 08:04:22 10° W 08:19:17 34° SW 08:32:54 10° SSE daylight
22 Nov - 19:20:53 10° SW 19:24:46 63° SE 19:29:25 10° ENE visible
22 Nov - 21:30:05 10° WNW 21:33:49 22° NNW 21:38:47 10° NNE night (unlit)
22 Nov - 23:41:11 10° NNW 23:45:29 16° N 23:50:58 10° NE night (unlit)
23 Nov - 01:49:54 10° NNW 01:58:30 28° NNE 02:10:38 10° ENE visible
23 Nov - 03:58:18 10° NW 04:11:28 62° NNE 04:29:06 10° ESE visible
23 Nov - 06:08:42 10° WNW 06:24:36 65° SW 06:41:57 10° SE daylight
23 Nov - 08:24:47 10° W 08:37:50 25° SW 08:49:49 10° SSE daylight
23 Nov - 17:33:56 10° SSE 17:34:45 10° SSE 17:35:33 10° SE daylight
23 Nov - 19:38:58 10° WSW 19:42:52 64° NNW 19:47:39 10° NE visible
23 Nov - 21:49:25 10° NW 21:52:34 16° N 21:56:28 10° NNE night (unlit)
24 Nov - 00:00:01 10° NNW 00:04:35 16° N 00:10:25 10° NE night (unlit)
24 Nov - 02:07:56 10° NW 02:17:19 33° NNE 02:30:50 10° E visible
24 Nov - 04:16:23 10° NW 04:29:55 75° NNE 04:48:01 10° ESE visible
24 Nov - 06:27:31 10° WNW 06:43:02 51° SW 06:59:42 10° SE daylight
24 Nov - 08:46:20 10° WSW 08:56:38 18° SW 09:06:10 10° S daylight
24 Nov - 17:49:42 10° SSW 17:52:56 21° SE 17:56:00 10° E daylight
24 Nov - 19:57:28 10° W 20:01:06 34° NNW 20:05:33 10° NE visible
24 Nov - 22:09:08 10° NNW 22:11:26 12° N 22:14:05 10° NNE night (unlit)
25 Nov - 00:18:25 10° NNW 00:23:37 17° NNE 00:30:27 10° NE night (unlit)
25 Nov - 02:25:53 10° NW 02:35:56 41° NNE 02:50:46 10° E visible
25 Nov - 04:34:33 10° WNW 04:48:20 89° SW 05:06:33 10° SE visible
25 Nov - 06:46:45 10° W 07:01:33 40° SW 07:17:11 10° SSE daylight
25 Nov - 09:10:04 10° SW 09:15:44 12° SSW 09:21:08 10° SSW daylight
25 Nov - 18:07:03 10° SW 18:11:03 42° SE 18:14:51 10° ENE daylight
25 Nov - 20:16:24 10° WNW 20:19:31 20° NNW 20:23:12 10° NNE visible
25 Nov - 22:29:14 10° N 22:30:22 10° N 22:31:38 10° NNE night (unlit)
26 Nov - 00:36:29 10° NNW 00:42:31 20° NNE 00:50:47 10° ENE visible
26 Nov - 02:43:47 10° NW 02:54:24 52° NNE 03:10:20 10° ESE visible
26 Nov - 04:52:52 10° WNW 05:06:45 73° SW 05:24:48 10° SE visible
26 Nov - 07:06:32 10° W 07:20:12 30° SW 07:34:22 10° SSE daylight
26 Nov - 18:24:58 10° WSW 18:29:09 89° N 18:33:10 10° ENE visible
26 Nov - 20:35:58 10° NW 20:38:04 13° NNW 20:40:26 10° NNE visible
26 Nov - 22:49:05 10° N 22:49:22 10° N 22:49:40 10° N night (unlit)
27 Nov - 00:54:22 10° NNW 01:01:16 25° NNE 01:11:08 10° ENE visible
27 Nov - 03:01:45 10° NW 03:12:46 65° NNE 03:29:32 10° ESE visible
27 Nov - 05:11:26 10° WNW 05:25:14 58° SW 05:42:45 10° SE visible
27 Nov - 07:27:07 10° WSW 07:39:04 23° SSW 07:51:12 10° SSE daylight
27 Nov - 16:35:21 10° SSW 16:38:53 18° SSE 16:41:51 10° ESE daylight
27 Nov - 18:43:20 10° WSW 18:47:15 43° NNW 18:51:08 10° NE visible
27 Nov - 23:06:36 10° N 23:08:20 11° NNE 23:10:16 10° NNE night (unlit)
28 Nov - 01:12:10 10° NNW 01:19:49 32° NNE 01:31:18 10° E visible
28 Nov - 03:19:46 10° NW 03:31:05 81° NE 03:48:21 10° ESE visible
28 Nov - 05:30:19 10° WNW 05:43:48 45° SW 06:00:25 10° SSE visible
28 Nov - 07:48:56 10° WSW 07:58:12 16° SSW 08:07:27 10° S daylight
28 Nov - 16:52:30 10° SSW 16:57:12 33° SSE 17:00:53 10° E daylight
28 Nov - 19:02:11 10° W 19:05:27 23° NNW 19:08:46 10° NNE visible
28 Nov - 23:24:04 10° N 23:27:12 13° NNE 23:30:57 10° NE night (unlit)
29 Nov - 01:29:57 10° NW 01:38:11 41° NNE 01:51:08 10° E visible
29 Nov - 03:37:56 10° WNW 03:49:26 81° SW 04:06:49 10° SE visible
29 Nov - 05:49:38 10° W 06:02:30 35° SSW 06:17:49 10° SSE visible
29 Nov - 08:13:29 10° SW 08:17:41 11° SSW 08:21:51 10° SSW daylight
29 Nov - 15:04:19 10° S 15:05:56 11° SSE 15:07:25 10° SE daylight
29 Nov - 17:10:17 10° SW 17:15:23 66° SSE 17:19:21 10° ENE daylight
29 Nov - 19:21:42 10° NW 19:23:47 14° NNW 19:25:56 10° N visible
29 Nov - 23:41:34 10° NNW 23:45:55 17° NNE 23:51:34 10° ENE night (unlit)
30 Nov - 01:47:46 10° NW 01:56:28 53° NE 02:10:36 10° ESE visible
30 Nov - 03:56:17 10° WNW 04:07:53 64° SW 04:24:57 10° SE visible
30 Nov - 06:09:35 10° W 06:21:24 26° SSW 06:34:55 10° SSE visible
30 Nov - 15:19:54 10° SSW 15:24:33 19° SSE 15:28:08 10° ESE daylight
30 Nov - 17:28:31 10° WSW 17:33:29 63° NNW 17:37:24 10° NE daylight
30 Nov - 23:59:05 10° NNW 00:04:27 22° NNE 00:11:58 10° ENE night (unlit)
01 Dec - 02:05:40 10° NW 02:14:41 69° NE 02:29:39 10° ESE visible
01 Dec - 04:14:54 10° WNW 04:26:25 49° SSW 04:42:48 10° SE visible
01 Dec - 06:30:27 10° WSW 06:40:32 19° SSW 06:51:36 10° S daylight
01 Dec - 15:37:00 10° SSW 15:43:03 31° SSE 15:47:17 10° E daylight
01 Dec - 17:47:11 10° W 17:51:32 33° NNW 17:55:09 10° NNE daylight
